| time (UTC) | temp F | wind direction | speed MPH | gust MPH | rain 1hr in | rain 24hr in | rain mn in | humidity % | barometer mb |
| 20260509100024 | 73 | 150 | 3.0 | 5.0 | 0.00 | 0.00 | 0.00 | 92 | 1009.9 |
| 20260509094525 | 73 | 346 | 0.0 | 1.0 | 0.00 | 0.00 | 0.00 | 92 | 1010.4 |
| 20260509093012 | 73 | 6 | 0.0 | 3.0 | 0.00 | 0.00 | 0.00 | 92 | 1010.4 |
| 20260509091520 | 73 | 65 | 0.0 | 3.0 | 0.00 | 0.00 | 0.00 | 92 | 1010.2 |
| 20260509090021 | 73 | 60 | 0.0 | 0.0 | 0.00 | 0.00 | 0.00 | 92 | 1010.2 |
| 20260509084523 | 73 | 229 | 0.0 | 0.0 | 0.00 | 0.00 | 0.00 | 92 | 1010.4 |
| 20260509083025 | 73 | 229 | 0.0 | 0.0 | 0.00 | 0.00 | 0.00 | 92 | 1010.5 |
| 20260509081514 | 73 | 229 | 0.0 | 0.0 | 0.00 | 0.00 | 0.00 | 92 | 1010.6 |
| 20260509080019 | 73 | 200 | 0.0 | 3.0 | 0.00 | 0.00 | 0.00 | 92 | 1010.6 |
| 20260509074522 | 73 | 123 | 0.0 | 5.0 | 0.00 | 0.00 | 0.00 | 92 | 1010.3 |
| 20260509073025 | 73 | 169 | 3.0 | 5.0 | 0.00 | 0.00 | 0.00 | 92 | 1010.3 |
| 20260509071526 | 72 | 210 | 0.0 | 3.0 | 0.00 | 0.00 | 0.00 | 91 | 1010.4 |
| 20260509070018 | 72 | 260 | 0.0 | 4.0 | 0.00 | 0.00 | 0.00 | 91 | 1010.4 |
| 20260509064520 | 72 | 122 | 2.0 | 6.0 | 0.00 | 0.00 | 0.00 | 91 | 1010.0 |
| 20260509063021 | 72 | 110 | 2.0 | 5.0 | 0.00 | 0.00 | 0.00 | 91 | 1010.0 |
| 20260509061528 | 72 | 134 | 3.0 | 6.0 | 0.00 | 0.00 | 0.00 | 90 | 1010.4 |
| 20260509060025 | 72 | 137 | 3.0 | 5.0 | 0.00 | 0.00 | 0.00 | 90 | 1010.7 |
| 20260509054516 | 72 | 121 | 2.0 | 8.0 | 0.00 | 0.00 | 0.00 | 90 | 1010.9 |
| 20260509053020 | 73 | 150 | 2.0 | 6.0 | 0.00 | 0.00 | 0.00 | 89 | 1010.8 |
| 20260509051533 | 73 | 152 | 3.0 | 6.0 | 0.00 | 0.00 | 0.00 | 89 | 1010.9 |
| 20260509050028 | 73 | 191 | 3.0 | 7.0 | 0.00 | 0.00 | 0.00 | 89 | 1010.9 |
| 20260509044526 | 73 | 117 | 1.0 | 9.0 | 0.00 | 0.00 | 0.00 | 89 | 1010.8 |
| 20260509043017 | 73 | 80 | 5.0 | 9.0 | 0.00 | 0.00 | 0.00 | 88 | 1010.8 |
| 20260509041521 | 73 | 146 | 4.0 | 7.0 | 0.00 | 0.00 | 0.00 | 88 | 1010.7 |
| 20260509040023 | 73 | 127 | 3.0 | 6.0 | 0.00 | 0.00 | 0.00 | 88 | 1010.7 |
| 20260509034541 | 73 | 176 | 2.0 | 6.0 | 0.00 | 0.00 | 0.00 | 88 | 1010.6 |
| 20260509033025 | 73 | 136 | 1.0 | 5.0 | 0.00 | 0.00 | 0.00 | 88 | 1010.6 |
| 20260509031518 | 73 | 123 | 0.0 | 4.0 | 0.00 | 0.00 | 0.00 | 87 | 1010.5 |
| 20260509030022 | 73 | 92 | 2.0 | 9.0 | 0.00 | 0.00 | 0.00 | 87 | 1010.3 |
| 20260509024530 | 73 | 115 | 4.0 | 8.0 | 0.00 | 0.00 | 0.00 | 87 | 1010.2 |
| 20260509023031 | 74 | 56 | 4.0 | 10.0 | 0.00 | 0.00 | 0.00 | 87 | 1010.1 |
| 20260509021527 | 74 | 120 | 4.0 | 7.0 | 0.00 | 0.00 | 0.00 | 87 | 1009.9 |
| 20260509020004 | 74 | 126 | 2.0 | 9.0 | 0.00 | 0.00 | 0.00 | 87 | 1009.8 |
| 20260509014505 | 74 | 167 | 1.0 | 6.0 | 0.00 | 0.00 | 0.00 | 87 | 1009.6 |
| 20260509013009 | 74 | 100 | 2.0 | 9.0 | 0.00 | 0.00 | 0.00 | 86 | 1009.5 |
| 20260509011515 | 74 | 131 | 3.0 | 9.0 | 0.00 | 0.00 | 0.00 | 86 | 1009.6 |
| 20260509010002 | 75 | 63 | 2.0 | 8.0 | 0.00 | 0.00 | 0.00 | 85 | 1009.4 |
| 20260509004503 | 75 | 107 | 5.0 | 9.0 | 0.00 | 0.00 | 0.00 | 85 | 1009.4 |
| 20260509003005 | 75 | 145 | 0.0 | 4.0 | 0.00 | 0.00 | 0.00 | 85 | 1009.3 |
| 20260509001509 | 76 | 131 | 3.0 | 9.0 | 0.00 | 0.00 | 0.00 | 84 | 1009.2 |
| 20260509000013 | 76 | 82 | 6.0 | 9.0 | 0.00 | 0.00 | 0.00 | 84 | 1009.3 |
| 20260508234503 | 77 | 63 | 2.0 | 8.0 | 0.00 | 0.00 | 0.00 | 83 | 1009.3 |
| 20260508233004 | 77 | 158 | 3.0 | 10.0 | 0.00 | 0.00 | 0.00 | 82 | 1009.3 |
| 20260508231508 | 78 | 134 | 4.0 | 11.0 | 0.00 | 0.00 | 0.00 | 81 | 1009.2 |
| 20260508230013 | 79 | 84 | 4.0 | 8.0 | 0.00 | 0.00 | 0.00 | 80 | 1009.1 |
| 20260508224515 | 79 | 141 | 4.0 | 11.0 | 0.00 | 0.00 | 0.00 | 80 | 1009.2 |
| 20260508223002 | 79 | 48 | 4.0 | 8.0 | 0.00 | 0.00 | 0.00 | 80 | 1009.2 |
| 20260508221507 | 78 | 110 | 5.0 | 7.0 | 0.00 | 0.00 | 0.00 | 80 | 1009.4 |
| 20260508220007 | 77 | 91 | 4.0 | 8.0 | 0.00 | 0.00 | 0.00 | 80 | 1009.6 |
| 20260508214516 | 78 | 72 | 1.0 | 7.0 | 0.00 | 0.00 | 0.00 | 80 | 1009.6 |
| 20260508213018 | 78 | 104 | 3.0 | 7.0 | 0.00 | 0.00 | 0.00 | 79 | 1009.8 |
| 20260508211504 | 78 | 100 | 3.0 | 8.0 | 0.00 | 0.00 | 0.00 | 79 | 1010.1 |
| 20260508210002 | 78 | 91 | 5.0 | 9.0 | 0.00 | 0.00 | 0.00 | 79 | 1010.0 |
| 20260508204511 | 77 | 80 | 3.0 | 8.0 | 0.00 | 0.00 | 0.00 | 80 | 1010.3 |
| 20260508203017 | 77 | 83 | 2.0 | 8.0 | 0.00 | 0.00 | 0.00 | 80 | 1010.5 |
| 20260508201521 | 78 | 99 | 2.0 | 7.0 | 0.00 | 0.00 | 0.00 | 79 | 1010.6 |
| 20260508194506 | 78 | 70 | 2.0 | 5.0 | 0.00 | 0.00 | 0.00 | 79 | 1010.7 |
| 20260508193009 | 76 | 76 | 4.0 | 7.0 | 0.00 | 0.00 | 0.00 | 80 | 1011.1 |
| 20260508191517 | 76 | 87 | 2.0 | 4.0 | 0.00 | 0.00 | 0.00 | 80 | 1011.4 |
| 20260508190038 | 76 | 153 | 2.0 | 4.0 | 0.00 | 0.00 | 0.00 | 79 | 1011.6 |
| 20260508183010 | 74 | 55 | 1.0 | 5.0 | 0.00 | 0.00 | 0.00 | 81 | 1011.8 |
| 20260508181512 | 74 | 105 | 0.0 | 4.0 | 0.00 | 0.00 | 0.00 | 81 | 1011.9 |
| 20260508180014 | 74 | 120 | 0.0 | 8.0 | 0.00 | 0.00 | 0.00 | 80 | 1012.0 |
| 20260508174521 | 74 | 55 | 2.0 | 7.0 | 0.00 | 0.00 | 0.00 | 81 | 1011.9 |
| 20260508173004 | 73 | 103 | 2.0 | 6.0 | 0.00 | 0.00 | 0.00 | 82 | 1012.1 |
| 20260508170011 | 70 | 82 | 2.0 | 5.0 | 0.00 | 0.00 | 0.00 | 84 | 1012.8 |
| 20260508164523 | 69 | 107 | 3.0 | 5.0 | 0.00 | 0.00 | 0.00 | 84 | 1013.1 |
| 20260508163024 | 69 | 94 | 1.0 | 6.0 | 0.00 | 0.00 | 0.00 | 83 | 1013.3 |
| 20260508161508 | 69 | 12 | 0.0 | 3.0 | 0.00 | 0.00 | 0.00 | 84 | 1013.4 |
| 20260508154516 | 68 | 105 | 4.0 | 10.0 | 0.00 | 0.00 | 0.00 | 85 | 1013.0 |
| 20260508153029 | 67 | 53 | 4.0 | 9.0 | 0.00 | 0.00 | 0.00 | 85 | 1013.0 |
| 20260508151522 | 67 | 7 | 3.0 | 9.0 | 0.00 | 0.00 | 0.00 | 85 | 1013.1 |
| 20260508143015 | 67 | 345 | 3.0 | 8.0 | 0.00 | 0.00 | 0.00 | 84 | 1013.7 |
| 20260508141521 | 67 | 358 | 1.0 | 6.0 | 0.00 | 0.00 | 0.00 | 84 | 1013.6 |
| 20260508140026 | 66 | 56 | 3.0 | 8.0 | 0.00 | 0.00 | 0.00 | 84 | 1013.6 |
| 20260508131519 | 64 | 30 | 2.0 | 6.0 | 0.00 | 0.00 | 0.00 | 85 | 1013.8 |
| 20260508130031 | 64 | 51 | 2.0 | 7.0 | 0.00 | 0.00 | 0.00 | 85 | 1013.6 |
| 20260508124523 | 64 | 59 | 1.0 | 9.0 | 0.00 | 0.00 | 0.00 | 85 | 1013.6 |
| 20260508123014 | 64 | 60 | 1.0 | 3.0 | 0.00 | 0.00 | 0.00 | 84 | 1013.7 |
| 20260508120020 | 64 | 351 | 1.0 | 4.0 | 0.00 | 0.00 | 0.00 | 84 | 1014.0 |
| 20260508114525 | 64 | 346 | 0.0 | 1.0 | 0.00 | 0.00 | 0.00 | 84 | 1014.1 |
| 20260508113027 | 64 | 63 | 0.0 | 3.0 | 0.00 | 0.00 | 0.00 | 84 | 1014.0 |
| 20260508110018 | 64 | 297 | 0.0 | 0.0 | 0.00 | 0.00 | 0.00 | 83 | 1014.0 |
| 20260508103010 | 64 | 350 | 2.0 | 6.0 | 0.00 | 0.00 | 0.00 | 82 | 1013.8 |